Regional Weather Roundup
Issued by NWS

Home | Current Version | Previous Version | Text Only | Print | Product List | Glossary Off
Versions: 1 2 3 4 5 6 7 8 9 10 11 12 13 14 15 16 17 18 19 20 21 22 23 24 25 26 27 28 29 30 31 32 33 34 35 36 37 38 39 40 41 42 43 44 45 46 47 48 49 50

000
ASUS44 KMEG 201600
RWRTN
TENNESSEE HOURLY STATE WEATHER ROUNDUP
NATIONAL WEATHER SERVICE MEMPHIS TN
1000 AM CST FRI JAN 20 2017

TNZ002-004-019-021-049-052-054-088>092-201700-
WEST TENNESSEE

CITY           SKY/WX    TMP DP  RH WIND       PRES   REMARKS
MEMPHIS INTL   CLOUDY    59  57  93 S14       29.77R
NWS MEMPHIS      N/A     58 N/A N/A MISG        N/A
JACKSON        CLOUDY    59  56  89 S10       29.78S
UNION CITY     CLOUDY   N/A N/A N/A CALM      29.74S
PARIS          CLOUDY    55  54  94 S9        29.78R
$$

TNZ008-025-027-028-033-062-065-066-201700-
NORTH MIDDLE TENNESSEE

CITY           SKY/WX    TMP DP  RH WIND       PRES   REMARKS
NASHVILLE      PTSUNNY   61  53  75 SW7       29.82R
CLARKSVILLE    PTSUNNY   60  54  80 S10       29.79R
SMYRNA         MOSUNNY   63  56  78 S8        29.83R
CROSSVILLE     CLOUDY    57  51  80 SW9G18    29.87R
$$

TNZ061-075-076-078-094-096-097-201700-
SOUTH MIDDLE TENNESSEE

CITY           SKY/WX    TMP DP  RH WIND       PRES   REMARKS
TULLAHOMA      PTSUNNY   61  55  82 SW9       29.85S
WINCHESTER     MOSUNNY   63  54  72 SW6       29.85S
MCMINNVILLE    MOSUNNY   63  55  77 SW6       29.84F
COLUMBIA       MOSUNNY   61  61 100 S7        29.80S
SHELBYVILLE    SUNNY     63  57  82 S12       29.84S
$$

TNZ017-018-042-046-047-201700-
NORTHEAST TENNESSEE

CITY           SKY/WX    TMP DP  RH WIND       PRES   REMARKS
TRI CITIES     CLOUDY    55  54  96 CALM      29.88R
$$

TNZ012-013-036-069-073-074-201700-
CENTRAL EAST TENNESSEE

CITY           SKY/WX    TMP DP  RH WIND       PRES   REMARKS
KNOXVILLE      CLOUDY    61  58  90 SW10      29.85R
OAK RIDGE      CLOUDY    57  55  93 VRB3      29.87R FOG
GATLINBURG     MOSUNNY   61  57  88 W7        29.85S
$$

TNZ083-085-099-201700-
SOUTHEAST TENNESSEE

CITY           SKY/WX    TMP DP  RH WIND       PRES   REMARKS
CHATTANOOGA    PTSUNNY   63  56  78 S8        29.86S
$$

SKY/WX REPORTED AS FAIR MEANS FEW OR NO CLOUDS BELOW
12 THOUSAND FEET.





USA.gov is the U.S. government's official web portal to all federal, state and local government web resources and services.